Location: Cottbus
(51.7000°N, 14.3000°E)
Time: 12:42:36
(UTC+01:00)

ISS - Pass Details

Date: 27 January 2019
Orbit: 403 x 411 km, 51.6° (Epoch: 23 February)

Event Time Altitude Azimuth Distance (km) Brightness Sun altitude
Rises 18:19:40 0° 238° (WSW) 2,329 1.4 -15.0°
Reaches altitude 10° 18:21:47 10° 233° (SW) 1,472 0.0 -15.3°
Maximum altitude 18:24:58 48° 158° (SSE) 546 -3.3 -15.8°
Enters shadow 18:25:53 36° 110° (ESE) 672 -3.2 -15.9°
